Date String (YYYY-MM-DD hh:mm:ss) UTC,Instrument flags,absolute air pressure of the measurement (hPa),sample flow rate (lpm),inlet stack bypass flow (lpm),air temperature of the measurement (°C),ambient temperature measured by the external sensor (°C),aerosol sample conditioner tube jacket temperature (°C),OPC LED temperature (°C),internal box temperature (°C),relative humidity of the measurement (%),span deviation,mass concentration of particles derived from Lorenz-Mie calculation of OPC scattering (μg/m³),mass concentration of particles derived from Lorenz-Mie calculation of OPC scattering (μg/m³),mass concentration of particles derived from Lorenz-Mie calculation of OPC scattering (μg/m³)
DateTimeUTC,F1_M11,P_M11,Q1_M11,Q2_M11,T1_M11,T2_M11,T3_M11,T4_M11,T5_M11,U1_M11,ZSPAN_M11,X0_M11,X2_M11,X1_M11
2024-02-15 20:00:00,SystemResetWarning,0823.7,5.01,000.00,019.5,019.2,000.0,027.8,021.3,20.4,0002.3,0015.50,0009.74,0009.15
2024-02-15 20:01:00,SystemResetWarning,0823.4,5.00,000.00,019.5,019.2,000.0,027.8,021.3,20.2,0002.3,0015.98,0009.80,0009.22
2024-02-15 20:02:00,SystemResetWarning,0823.1,5.00,000.00,019.6,019.2,000.0,027.8,021.4,20.2,0002.3,0015.98,0009.88,0009.30
2024-02-15 20:03:00,SystemResetWarning,0823.0,4.99,000.00,019.6,019.2,000.0,027.8,021.4,20.2,0002.2,0015.90,0009.99,0009.40
2024-02-15 20:04:00,SystemResetWarning,0822.9,5.00,000.00,019.6,019.2,000.0,027.9,021.4,20.5,0002.0,0016.24,0010.11,0009.46
2024-02-15 20:05:00,SystemResetWarning,0823.3,5.00,000.00,019.6,019.2,000.0,027.9,021.4,20.7,0002.1,0016.38,0010.17,0009.51
2024-02-15 20:06:00,SystemResetWarning,0823.6,5.00,000.00,019.6,019.2,000.0,027.9,021.4,20.6,0002.1,0015.57,0010.16,0009.52
2024-02-15 20:07:00,SystemResetWarning,0823.8,5.00,000.00,019.6,019.3,000.0,027.9,021.4,20.0,0001.8,0015.28,0010.18,0009.54
2024-02-15 20:08:00,SystemResetWarning,0823.9,5.02,000.00,019.6,019.3,000.0,027.9,021.4,19.9,0001.7,0015.50,0010.22,0009.54
2024-02-15 20:09:00,SystemResetWarning,0823.7,5.01,000.00,019.6,019.3,000.0,027.9,021.5,20.1,0001.6,0015.24,0010.24,0009.54
2024-02-15 20:10:00,SystemResetWarning,0823.4,5.00,000.00,019.7,019.3,000.0,027.9,021.5,20.0,0001.7,0014.99,0010.24,0009.56
2024-02-15 20:11:00,SystemResetWarning,0823.0,5.00,000.00,019.7,019.3,000.0,028.0,021.5,19.7,0001.6,0014.94,0010.35,0009.63
2024-02-15 20:12:00,SystemResetWarning,0823.1,5.00,000.00,019.7,019.3,000.0,028.0,021.5,19.9,0001.7,0014.63,0010.42,0009.66
2024-02-15 20:13:00,SystemResetWarning,0823.2,5.00,000.00,019.7,019.3,000.0,028.0,021.5,19.9,0001.8,0014.93,0010.47,0009.68
2024-02-15 20:14:00,SystemResetWarning,0823.4,5.00,000.00,019.7,019.3,000.0,028.0,021.5,19.7,0002.0,0015.36,0010.50,0009.70
2024-02-15 20:15:00,SystemResetWarning,0823.6,5.00,000.00,019.7,019.4,000.0,028.0,021.5,19.7,0002.1,0015.21,0010.47,0009.70
2024-02-15 20:16:00,SystemResetWarning,0823.6,5.00,000.00,019.7,019.4,000.0,028.0,021.6,19.8,0002.1,0015.14,0010.46,0009.71
2024-02-15 20:17:00,SystemResetWarning,0823.4,5.00,000.00,019.7,019.4,000.0,028.0,021.6,19.7,0001.9,0015.68,0010.58,0009.74
2024-02-15 20:18:00,SystemResetWarning,0823.1,5.00,000.00,019.8,019.4,000.0,028.1,021.6,19.6,0001.7,0016.17,0010.61,0009.75
2024-02-15 20:19:00,SystemResetWarning,0822.8,4.99,000.00,019.8,019.4,000.0,028.1,021.6,19.5,0001.6,0016.70,0010.61,0009.78
2024-02-15 20:20:00,SystemResetWarning,0822.7,5.00,000.00,019.8,019.4,000.0,028.1,021.6,19.3,0001.7,0017.70,0010.66,0009.81
2024-02-15 20:21:00,SystemResetWarning,0823.1,5.00,000.00,019.8,019.4,000.0,028.1,021.6,19.6,0001.9,0018.01,0010.69,0009.83
2024-02-15 20:22:00,SystemResetWarning,0823.4,5.00,000.00,019.8,019.5,000.0,028.1,021.6,19.7,0001.7,0018.36,0010.65,0009.81
2024-02-15 20:23:00,SystemResetWarning,0823.4,5.01,000.00,019.8,019.5,000.0,028.1,021.7,19.7,0001.5,0018.30,0010.62,0009.78
2024-02-15 20:24:00,SystemResetWarning,0823.4,5.00,000.00,019.9,019.5,000.0,028.1,021.7,19.5,0001.7,0017.97,0010.58,0009.76
2024-02-15 20:25:00,SystemResetWarning,0823.5,5.00,000.00,019.9,019.5,000.0,028.1,021.7,19.7,0001.5,0018.65,0010.55,0009.72
2024-02-15 20:26:00,SystemResetWarning,0823.5,5.00,000.00,019.9,019.5,000.0,028.1,021.7,19.9,0001.3,0018.39,0010.52,0009.70
2024-02-15 20:27:00,SystemResetWarning,0823.3,5.00,000.00,019.9,019.6,000.0,028.2,021.7,19.9,0001.3,0018.31,0010.51,0009.69
2024-02-15 20:28:00,SystemResetWarning,0823.1,5.00,000.00,019.9,019.6,000.0,028.2,021.8,19.8,0001.5,0018.61,0010.44,0009.65
2024-02-15 20:29:00,SystemResetWarning,0823.3,5.00,000.00,019.9,019.6,000.0,028.2,021.8,19.7,0001.8,0018.86,0010.40,0009.64
2024-02-15 20:30:00,SystemResetWarning,0823.3,4.99,000.00,020.0,019.6,000.0,028.2,021.8,19.7,0001.8,0019.05,0010.38,0009.63
2024-02-15 20:31:00,SystemResetWarning,0823.1,5.00,000.00,020.0,019.6,000.0,028.2,021.8,19.7,0001.7,0017.99,0010.33,0009.62
2024-02-15 20:32:00,SystemResetWarning,0823.0,4.99,000.00,020.0,019.6,000.0,028.2,021.8,19.6,0001.6,0018.55,0010.34,0009.61
2024-02-15 20:33:00,SystemResetWarning,0823.0,5.00,000.00,020.0,019.7,000.0,028.2,021.8,19.7,0001.2,0018.48,0010.32,0009.59
2024-02-15 20:34:00,SystemResetWarning,0823.2,5.01,000.00,020.0,019.7,000.0,028.3,021.8,19.7,0001.1,0018.64,0010.31,0009.60
2024-02-15 20:35:00,SystemResetWarning,0823.2,5.01,000.00,020.0,019.7,000.0,028.3,021.8,19.7,0001.1,0018.52,0010.29,0009.61
2024-02-15 20:36:00,SystemResetWarning,0823.1,5.00,000.00,020.0,019.7,000.0,028.3,021.9,19.7,0000.9,0018.12,0010.29,0009.61
2024-02-15 20:37:00,SystemResetWarning,0823.2,4.99,000.00,020.0,019.7,000.0,028.3,021.9,19.8,0000.9,0018.84,0010.34,0009.63
2024-02-15 20:38:00,SystemResetWarning,0823.1,4.99,000.00,020.1,019.7,000.0,028.3,021.9,19.8,0000.9,0019.35,0010.37,0009.66
2024-02-15 20:39:00,SystemResetWarning,0823.4,5.01,000.00,020.1,019.7,000.0,028.3,021.9,19.6,0000.8,0019.66,0010.35,0009.69
2024-02-15 20:40:00,SystemResetWarning,0823.4,5.01,000.00,020.1,019.7,000.0,028.3,021.9,19.6,0000.8,0018.68,0010.33,0009.68
2024-02-15 20:41:00,SystemResetWarning,0823.4,5.00,000.00,020.1,019.7,000.0,028.4,021.9,19.7,0000.8,0018.04,0010.32,0009.67
2024-02-15 20:42:00,SystemResetWarning,0823.3,5.00,000.00,020.1,019.8,000.0,028.4,022.0,19.7,0001.0,0018.05,0010.34,0009.65
2024-02-15 20:43:00,SystemResetWarning,0823.1,5.00,000.00,020.1,019.8,000.0,028.4,022.0,19.3,0001.2,0017.65,0010.30,0009.61
2024-02-15 20:44:00,SystemResetWarning,0823.1,5.00,000.00,020.1,019.8,000.0,028.4,022.0,19.5,0001.3,0017.59,0010.28,0009.57
2024-02-15 20:45:00,SystemResetWarning,0823.0,5.00,000.00,020.2,019.8,000.0,028.4,022.0,19.4,0001.6,0017.45,0010.25,0009.52
2024-02-15 20:46:00,SystemResetWarning,0823.0,5.00,000.00,020.2,019.8,000.0,028.4,022.0,19.5,0001.7,0017.53,0010.23,0009.49
2024-02-15 20:47:00,SystemResetWarning,0823.2,4.99,000.00,020.2,019.8,000.0,028.4,022.0,19.2,0001.9,0016.96,0010.14,0009.44
2024-02-15 20:48:00,SystemResetWarning,0823.4,4.99,000.00,020.2,019.8,000.0,028.4,022.0,19.3,0002.0,0016.01,0010.05,0009.39
2024-02-15 20:49:00,SystemResetWarning,0823.4,5.01,000.00,020.2,019.9,000.0,028.4,022.0,19.7,0002.1,0015.28,0009.96,0009.31
2024-02-15 20:50:00,SystemResetWarning,0823.2,5.00,000.00,020.2,019.9,000.0,028.5,022.1,19.6,0002.1,0014.60,0009.91,0009.26
2024-02-15 20:51:00,SystemResetWarning,0823.4,5.00,000.00,020.2,019.9,000.0,028.5,022.1,19.4,0002.0,0014.31,0009.87,0009.25
2024-02-15 20:52:00,SystemResetWarning,0823.5,5.01,000.00,020.3,019.9,000.0,028.5,022.1,19.5,0001.8,0014.27,0009.85,0009.22
2024-02-15 20:53:00,SystemResetWarning,0823.5,5.01,000.00,020.3,019.9,000.0,028.5,022.1,19.4,0001.3,0014.12,0009.84,0009.20
2024-02-15 20:54:00,SystemResetWarning,0823.4,5.00,000.00,020.3,019.9,000.0,028.5,022.1,19.2,0001.1,0014.55,0009.81,0009.18
2024-02-15 20:55:00,SystemResetWarning,0823.4,4.99,000.00,020.3,019.9,000.0,028.6,022.1,19.4,0001.5,0014.62,0009.77,0009.16
2024-02-15 20:56:00,SystemResetWarning,0823.2,4.99,000.00,020.3,019.9,000.0,028.6,022.1,19.3,0001.6,0014.73,0009.74,0009.15
2024-02-15 20:57:00,SystemResetWarning,0823.0,4.99,000.00,020.3,020.0,000.0,028.6,022.1,19.7,0001.4,0015.20,0009.71,0009.12
2024-02-15 20:58:00,SystemResetWarning,0823.3,5.01,000.00,020.3,020.0,000.0,028.6,022.2,19.4,0001.2,0015.15,0009.67,0009.09
2024-02-15 20:59:00,SystemResetWarning,0823.4,5.01,000.00,020.3,020.0,000.0,028.6,022.2,19.5,0001.5,0015.17,0009.66,0009.07
